Location: Marcé
(47.5801°N, 0.3280°W)
Time: 19:49:25
(UTC+01:00)

Vanguard 3 - Pass Details

Date: 08 December 2021
Orbit: 508 x 3260 km, 33.3° (Epoch: 16 January)

Event Time Altitude Azimuth Distance (km) Brightness Sun altitude
Rises 02:24:54 0° 214° (SW) 6,318 - -59.1°
Reaches altitude 10° 02:29:19 10° 206° (SSW) 5,610 - -58.6°
Maximum altitude 02:44:36 35° 149° (SSE) 4,429 - -56.6°
Exits shadow 02:47:00 34° 138° (SE) 4,490 10.7 -56.3°
Drops below altitude 10° 03:00:39 10° 94° (E) 5,928 11.8 -54.4°
Sets 03:05:26 0° 86° (E) 6,708 12.3 -53.8°
